Hourly Data Report for September 04, 2017

All times are specified in Local Standard Time (LST). Add 1 hour to adjust for Daylight Saving Time where and when it is observed.

SANDY LAKE A
ONTARIO

53°03'51.000" N
93°20'40.000" W
289.90 m
6017401
71587
ZSJ

Related Data

No related data is available for this station

Download Data

Hourly Data (September 2017)
Hourly Data Report for September 4, 2017
Temp Definition
°C
Dew Point Temp Definition
°C
Rel Hum Definition
%
Wind Dir Definition
10's deg

Wind Spd Definition
km/h
Visibility Definition
km
Stn Press Definition
kPa
Hmdx Definition


Wind Chill Definition


Weather Definition


TIME
00:00 Legend Double Dagger 9.6 7.7 88 LegendMM LegendMM 16.1 96.99     LegendNANA
01:00 Legend Double Dagger 9.3 8.6 95 LegendMM LegendMM 16.1 96.98     LegendNANA
02:00 Legend Double Dagger 8.3 7.4 94 LegendMM LegendMM 16.1 96.95     LegendNANA
03:00 Legend Double Dagger 7.6 6.6 93 LegendMM LegendMM 16.1 96.94     LegendNANA
04:00 Legend Double Dagger 7.6 6.2 91 LegendMM LegendMM 16.1 96.93     LegendNANA
05:00 Legend Double Dagger 8.1 6.1 87 LegendMM LegendMM 16.1 96.90     LegendNANA
06:00 Legend Double Dagger 8.4 5.8 83 LegendMM LegendMM 16.1 96.90     LegendNANA
07:00 Legend Double Dagger 8.8 5.5 80 LegendMM LegendMM 16.1 96.91     LegendNANA
08:00 Legend Double Dagger 9.0 6.6 85 LegendMM LegendMM 16.1 96.92     LegendNANA
09:00 Legend Double Dagger 9.3 6.8 84 LegendMM LegendMM 16.1 96.92     LegendNANA
10:00 Legend Double Dagger 10.0 7.1 82 LegendMM LegendMM 16.1 96.93     LegendNANA
11:00 Legend Double Dagger 9.2 8.1 93 LegendMM LegendMM 8.1 96.95     Rain,Fog
12:00 Legend Double Dagger 10.1 8.3 88 LegendMM LegendMM 16.1 96.94     Rain
13:00 Legend Double Dagger 9.4 8.5 94 LegendMM LegendMM 6.4 96.98     Rain,Fog
14:00 Legend Double Dagger 8.2 7.1 93 LegendMM LegendMM 11.3 97.06     Rain
15:00 Legend Double Dagger 8.9 7.5 91 LegendMM LegendMM 16.1 97.12     Rain
16:00 Legend Double Dagger 8.7 6.3 85 LegendMM LegendMM 16.1 97.22     LegendNANA
17:00 Legend Double Dagger 7.6 6.1 90 LegendMM LegendMM 16.1 97.32     Rain
18:00 Legend Double Dagger 7.5 6.5 93 LegendMM LegendMM 16.1 97.37     Rain
19:00 Legend Double Dagger 7.4 6.5 94 LegendMM LegendMM 16.1 97.41     Rain
20:00 Legend Double Dagger 7.4 6.8 96 LegendMM LegendMM 4.8 97.46     Rain,Fog
21:00 Legend Double Dagger 7.6 6.9 95 LegendMM LegendMM 8.1 97.50     Rain,Fog
22:00 Legend Double Dagger 7.4 6.5 94 LegendMM LegendMM 9.7 97.55     Rain,Fog
23:00 Legend Double Dagger 7.2 6.1 93 LegendMM LegendMM 16.1 97.60     LegendNANA

Notes on Data Quality.

Legend

  • E = Estimated
  • M = Missing
  • NA = Not Available
  • ‡ = Partner data that is not subject to review by the National Climate Archives
Date modified: